| time (UTC) | temp F | wind direction | speed MPH | gust MPH | rain 1hr in | rain 24hr in | rain mn in | humidity % | barometer mb |
| 20260504213522 | 78 | 287 | 8.0 | 17.0 | 0.00 | 0.00 | 0.00 | 45 | 1001.8 |
| 20260504213035 | 78 | 287 | 11.0 | 17.0 | 0.00 | 0.00 | 0.00 | 45 | 1001.8 |
| 20260504212524 | 78 | 287 | 9.0 | 15.0 | 0.00 | 0.00 | 0.00 | 45 | 1001.8 |
| 20260504212028 | 78 | 287 | 9.0 | 14.0 | 0.00 | 0.00 | 0.00 | 45 | 1001.8 |
| 20260504211543 | 78 | 287 | 9.0 | 14.0 | 0.00 | 0.00 | 0.00 | 44 | 1001.9 |
| 20260504211024 | 78 | 287 | 9.0 | 17.0 | 0.00 | 0.00 | 0.00 | 45 | 1001.9 |
| 20260504210525 | 78 | 287 | 9.0 | 17.0 | 0.00 | 0.00 | 0.00 | 44 | 1001.8 |
| 20260504210055 | 78 | 287 | 9.0 | 17.0 | 0.00 | 0.00 | 0.00 | 44 | 1001.9 |
| 20260504205524 | 78 | 287 | 8.0 | 16.0 | 0.00 | 0.00 | 0.00 | 44 | 1002.0 |
| 20260504205024 | 78 | 287 | 8.0 | 15.0 | 0.00 | 0.00 | 0.00 | 44 | 1001.9 |
| 20260504204553 | 79 | 287 | 7.0 | 15.0 | 0.00 | 0.00 | 0.00 | 44 | 1001.9 |
| 20260504204025 | 79 | 287 | 9.0 | 17.0 | 0.00 | 0.00 | 0.00 | 43 | 1002.0 |
| 20260504203524 | 79 | 287 | 9.0 | 17.0 | 0.00 | 0.00 | 0.00 | 42 | 1002.0 |
| 20260504203038 | 79 | 287 | 8.0 | 15.0 | 0.00 | 0.00 | 0.00 | 44 | 1001.9 |
| 20260504202525 | 79 | 287 | 9.0 | 16.0 | 0.00 | 0.00 | 0.00 | 43 | 1001.9 |
| 20260504202024 | 79 | 287 | 8.0 | 16.0 | 0.00 | 0.00 | 0.00 | 43 | 1002.0 |
| 20260504201539 | 79 | 287 | 9.0 | 16.0 | 0.00 | 0.00 | 0.00 | 42 | 1002.1 |
| 20260504201024 | 79 | 287 | 9.0 | 15.0 | 0.00 | 0.00 | 0.00 | 43 | 1002.0 |
| 20260504200525 | 80 | 287 | 8.0 | 14.0 | 0.00 | 0.00 | 0.00 | 42 | 1002.3 |
| 20260504200043 | 80 | 287 | 8.0 | 16.0 | 0.00 | 0.00 | 0.00 | 43 | 1002.2 |
| 20260504195523 | 79 | 287 | 8.0 | 16.0 | 0.00 | 0.00 | 0.00 | 43 | 1002.2 |
| 20260504195022 | 80 | 287 | 7.0 | 15.0 | 0.00 | 0.00 | 0.00 | 43 | 1002.3 |
| 20260504194540 | 80 | 287 | 7.0 | 12.0 | 0.00 | 0.00 | 0.00 | 42 | 1002.3 |
| 20260504194024 | 80 | 287 | 6.0 | 12.0 | 0.00 | 0.00 | 0.00 | 42 | 1002.3 |
| 20260504193525 | 80 | 287 | 3.0 | 13.0 | 0.00 | 0.00 | 0.00 | 42 | 1002.4 |
| 20260504193040 | 80 | 287 | 7.0 | 13.0 | 0.00 | 0.00 | 0.00 | 42 | 1002.4 |
| 20260504192524 | 79 | 287 | 7.0 | 13.0 | 0.00 | 0.00 | 0.00 | 41 | 1002.5 |
| 20260504192024 | 79 | 287 | 5.0 | 14.0 | 0.00 | 0.00 | 0.00 | 43 | 1002.4 |
| 20260504191539 | 79 | 287 | 8.0 | 14.0 | 0.00 | 0.00 | 0.00 | 41 | 1002.6 |
| 20260504191027 | 79 | 287 | 8.0 | 14.0 | 0.00 | 0.00 | 0.00 | 41 | 1002.6 |
| 20260504190525 | 78 | 287 | 7.0 | 13.0 | 0.00 | 0.00 | 0.00 | 42 | 1002.7 |
| 20260504190038 | 78 | 287 | 4.0 | 11.0 | 0.00 | 0.00 | 0.00 | 43 | 1002.8 |
| 20260504185524 | 78 | 287 | 5.0 | 13.0 | 0.00 | 0.00 | 0.00 | 42 | 1002.9 |
| 20260504185028 | 77 | 287 | 2.0 | 13.0 | 0.00 | 0.00 | 0.00 | 43 | 1002.9 |
| 20260504184543 | 77 | 287 | 8.0 | 13.0 | 0.00 | 0.00 | 0.00 | 44 | 1003.0 |
| 20260504184024 | 76 | 287 | 6.0 | 12.0 | 0.00 | 0.00 | 0.00 | 45 | 1003.1 |
| 20260504183526 | 76 | 287 | 5.0 | 12.0 | 0.00 | 0.00 | 0.00 | 48 | 1003.0 |
| 20260504183040 | 76 | 287 | 6.0 | 13.0 | 0.00 | 0.00 | 0.00 | 49 | 1003.1 |
| 20260504182521 | 75 | 287 | 7.0 | 13.0 | 0.00 | 0.00 | 0.00 | 48 | 1003.0 |
| 20260504182027 | 75 | 287 | 5.0 | 12.0 | 0.00 | 0.00 | 0.00 | 51 | 1003.0 |
| 20260504181540 | 74 | 287 | 5.0 | 13.0 | 0.00 | 0.00 | 0.00 | 52 | 1003.1 |
| 20260504181028 | 74 | 287 | 6.0 | 16.0 | 0.00 | 0.00 | 0.00 | 50 | 1003.2 |
| 20260504180527 | 74 | 287 | 9.0 | 16.0 | 0.00 | 0.00 | 0.00 | 48 | 1003.2 |
| 20260504180039 | 76 | 287 | 8.0 | 14.0 | 0.00 | 0.00 | 0.00 | 47 | 1003.3 |
| 20260504175526 | 76 | 287 | 7.0 | 16.0 | 0.00 | 0.00 | 0.00 | 47 | 1003.3 |
| 20260504175026 | 76 | 287 | 9.0 | 16.0 | 0.00 | 0.00 | 0.00 | 47 | 1003.2 |
| 20260504174538 | 76 | 287 | 8.0 | 15.0 | 0.00 | 0.00 | 0.00 | 46 | 1003.1 |
| 20260504174027 | 76 | 287 | 6.0 | 15.0 | 0.00 | 0.00 | 0.00 | 46 | 1003.3 |
| 20260504173525 | 76 | 287 | 8.0 | 15.0 | 0.00 | 0.00 | 0.00 | 46 | 1003.3 |
| 20260504173041 | 76 | 287 | 6.0 | 14.0 | 0.00 | 0.00 | 0.00 | 45 | 1003.6 |
| 20260504172526 | 76 | 287 | 8.0 | 14.0 | 0.00 | 0.00 | 0.00 | 44 | 1003.5 |
| 20260504172027 | 76 | 287 | 6.0 | 17.0 | 0.00 | 0.00 | 0.00 | 44 | 1003.5 |
| 20260504171539 | 76 | 287 | 10.0 | 17.0 | 0.00 | 0.00 | 0.00 | 44 | 1003.5 |
| 20260504171031 | 75 | 287 | 7.0 | 17.0 | 0.00 | 0.00 | 0.00 | 45 | 1003.7 |
| 20260504170526 | 76 | 287 | 6.0 | 17.0 | 0.00 | 0.00 | 0.00 | 44 | 1003.7 |
| 20260504151026 | 71 | 287 | 5.0 | 11.0 | 0.00 | 0.00 | 0.00 | 54 | 1004.3 |
| 20260504150526 | 71 | 287 | 6.0 | 11.0 | 0.00 | 0.00 | 0.00 | 55 | 1004.2 |
| 20260504141026 | 66 | 287 | 4.0 | 9.0 | 0.00 | 0.00 | 0.00 | 65 | 1004.6 |
| 20260504140526 | 66 | 287 | 3.0 | 9.0 | 0.00 | 0.00 | 0.00 | 65 | 1004.8 |
| 20260504130528 | 61 | 287 | 3.0 | 10.0 | 0.00 | 0.00 | 0.00 | 71 | 1005.7 |
| 20260504110526 | 52 | 0 | 0.0 | 0.0 | 0.00 | 0.00 | 0.00 | 83 | 1006.2 |
| 20260504100526 | 52 | 0 | 0.0 | 2.0 | 0.00 | 0.00 | 0.00 | 83 | 1006.4 |
| 20260504081541 | 53 | 0 | 0.0 | 6.0 | 0.00 | 0.00 | 0.00 | 81 | 1006.7 |
| 20260504081026 | 53 | 287 | 0.0 | 6.0 | 0.00 | 0.00 | 0.00 | 81 | 1006.9 |
| 20260504080523 | 53 | 0 | 0.0 | 4.0 | 0.00 | 0.00 | 0.00 | 81 | 1006.9 |
| 20260504050522 | 53 | 0 | 0.0 | 0.0 | 0.00 | 0.00 | 0.00 | 73 | 1008.4 |
| 20260504045525 | 53 | 0 | 0.0 | 0.0 | 0.00 | 0.00 | 0.00 | 72 | 1008.4 |
| 20260504045025 | 54 | 0 | 0.0 | 0.0 | 0.00 | 0.00 | 0.00 | 71 | 1008.5 |
| 20260504044538 | 54 | 0 | 0.0 | 0.0 | 0.00 | 0.00 | 0.00 | 71 | 1008.4 |
| 20260504044025 | 54 | 0 | 0.0 | 1.0 | 0.00 | 0.00 | 0.00 | 71 | 1008.4 |
| 20260504043527 | 54 | 0 | 0.0 | 1.0 | 0.00 | 0.00 | 0.00 | 71 | 1008.5 |
| 20260504043048 | 54 | 0 | 0.0 | 0.0 | 0.00 | 0.00 | 0.00 | 71 | 1008.5 |
| 20260504042526 | 54 | 0 | 0.0 | 0.0 | 0.00 | 0.00 | 0.00 | 70 | 1008.5 |
| 20260504042025 | 54 | 0 | 0.0 | 0.0 | 0.00 | 0.00 | 0.00 | 70 | 1008.5 |
| 20260504041544 | 54 | 0 | 0.0 | 0.0 | 0.00 | 0.00 | 0.00 | 69 | 1008.5 |
| 20260504041025 | 55 | 0 | 0.0 | 0.0 | 0.00 | 0.00 | 0.00 | 69 | 1008.6 |
| 20260504040527 | 55 | 0 | 0.0 | 0.0 | 0.00 | 0.00 | 0.00 | 69 | 1008.5 |
| 20260504040046 | 55 | 0 | 0.0 | 0.0 | 0.00 | 0.00 | 0.00 | 69 | 1008.5 |
| 20260504035526 | 55 | 0 | 0.0 | 0.0 | 0.00 | 0.00 | 0.00 | 68 | 1008.7 |
| 20260504035026 | 55 | 0 | 0.0 | 0.0 | 0.00 | 0.00 | 0.00 | 68 | 1008.7 |
| 20260504034547 | 56 | 0 | 0.0 | 0.0 | 0.00 | 0.00 | 0.00 | 68 | 1008.8 |
| 20260504034026 | 56 | 0 | 0.0 | 0.0 | 0.00 | 0.00 | 0.00 | 67 | 1008.8 |
| 20260504033525 | 56 | 0 | 0.0 | 0.0 | 0.00 | 0.00 | 0.00 | 67 | 1008.8 |
| 20260504033046 | 56 | 0 | 0.0 | 0.0 | 0.00 | 0.00 | 0.00 | 67 | 1008.8 |
| 20260504032527 | 56 | 0 | 0.0 | 0.0 | 0.00 | 0.00 | 0.00 | 67 | 1008.8 |
| 20260504032025 | 56 | 0 | 0.0 | 0.0 | 0.00 | 0.00 | 0.00 | 67 | 1008.8 |
| 20260504031544 | 56 | 0 | 0.0 | 0.0 | 0.00 | 0.00 | 0.00 | 67 | 1008.9 |
| 20260504031024 | 56 | 0 | 0.0 | 0.0 | 0.00 | 0.00 | 0.00 | 68 | 1008.9 |
| 20260504030525 | 56 | 0 | 0.0 | 0.0 | 0.00 | 0.00 | 0.00 | 68 | 1008.9 |
| 20260504030040 | 56 | 0 | 0.0 | 0.0 | 0.00 | 0.00 | 0.00 | 68 | 1008.9 |
| 20260504025526 | 56 | 0 | 0.0 | 0.0 | 0.00 | 0.00 | 0.00 | 68 | 1009.0 |
| 20260504025025 | 56 | 0 | 0.0 | 0.0 | 0.00 | 0.00 | 0.00 | 68 | 1009.0 |
| 20260504024547 | 56 | 0 | 0.0 | 0.0 | 0.00 | 0.00 | 0.00 | 67 | 1008.9 |
| 20260504024025 | 56 | 0 | 0.0 | 0.0 | 0.00 | 0.00 | 0.00 | 67 | 1008.9 |
| 20260504023522 | 56 | 0 | 0.0 | 0.0 | 0.00 | 0.00 | 0.00 | 67 | 1009.0 |
| 20260504023037 | 56 | 0 | 0.0 | 0.0 | 0.00 | 0.00 | 0.00 | 67 | 1008.8 |
| 20260504022525 | 56 | 0 | 0.0 | 0.0 | 0.00 | 0.00 | 0.00 | 67 | 1008.9 |
| 20260504022025 | 56 | 0 | 0.0 | 0.0 | 0.00 | 0.00 | 0.00 | 67 | 1008.9 |
| 20260504021542 | 56 | 0 | 0.0 | 0.0 | 0.00 | 0.00 | 0.00 | 66 | 1008.9 |
| 20260504021025 | 57 | 0 | 0.0 | 0.0 | 0.00 | 0.00 | 0.00 | 66 | 1008.9 |
| 20260504020525 | 57 | 0 | 0.0 | 0.0 | 0.00 | 0.00 | 0.00 | 65 | 1008.8 |
| 20260504020043 | 57 | 0 | 0.0 | 0.0 | 0.00 | 0.00 | 0.00 | 65 | 1008.9 |
| 20260504015526 | 57 | 0 | 0.0 | 0.0 | 0.00 | 0.00 | 0.00 | 64 | 1008.7 |
| 20260504015026 | 57 | 0 | 0.0 | 0.0 | 0.00 | 0.00 | 0.00 | 64 | 1008.8 |
| 20260504014542 | 58 | 0 | 0.0 | 0.0 | 0.00 | 0.00 | 0.00 | 63 | 1008.8 |
| 20260504014025 | 58 | 0 | 0.0 | 0.0 | 0.00 | 0.00 | 0.00 | 62 | 1008.7 |
| 20260504013525 | 59 | 0 | 0.0 | 0.0 | 0.00 | 0.00 | 0.00 | 61 | 1008.8 |
| 20260504013054 | 59 | 0 | 0.0 | 0.0 | 0.00 | 0.00 | 0.00 | 60 | 1008.6 |
| 20260504012525 | 60 | 0 | 0.0 | 0.0 | 0.00 | 0.00 | 0.00 | 60 | 1008.6 |
| 20260504012025 | 60 | 0 | 0.0 | 0.0 | 0.00 | 0.00 | 0.00 | 59 | 1008.5 |
| 20260504011546 | 61 | 0 | 0.0 | 0.0 | 0.00 | 0.00 | 0.00 | 58 | 1008.6 |
| 20260504011025 | 61 | 0 | 0.0 | 0.0 | 0.00 | 0.00 | 0.00 | 57 | 1008.5 |
| 20260504010525 | 62 | 0 | 0.0 | 0.0 | 0.00 | 0.00 | 0.00 | 56 | 1008.4 |
| 20260504010045 | 62 | 0 | 0.0 | 0.0 | 0.00 | 0.00 | 0.00 | 55 | 1008.5 |
| 20260504005526 | 63 | 0 | 0.0 | 0.0 | 0.00 | 0.00 | 0.00 | 54 | 1008.4 |
| 20260504005025 | 63 | 0 | 0.0 | 0.0 | 0.00 | 0.00 | 0.00 | 53 | 1008.3 |
| 20260504004541 | 64 | 0 | 0.0 | 0.0 | 0.00 | 0.00 | 0.00 | 53 | 1008.3 |
| 20260504004026 | 64 | 0 | 0.0 | 0.0 | 0.00 | 0.00 | 0.00 | 52 | 1008.3 |
| 20260504003526 | 65 | 0 | 0.0 | 3.0 | 0.00 | 0.00 | 0.00 | 51 | 1008.3 |
| 20260504003041 | 65 | 0 | 0.0 | 6.0 | 0.00 | 0.00 | 0.00 | 51 | 1008.4 |
| 20260504002525 | 66 | 0 | 0.0 | 6.0 | 0.00 | 0.00 | 0.00 | 50 | 1008.4 |
| 20260504002025 | 66 | 0 | 0.0 | 6.0 | 0.00 | 0.00 | 0.00 | 49 | 1008.4 |
| 20260504001543 | 66 | 0 | 0.0 | 7.0 | 0.00 | 0.00 | 0.00 | 49 | 1008.4 |
| 20260504001026 | 66 | 287 | 0.0 | 7.0 | 0.00 | 0.00 | 0.00 | 48 | 1008.3 |
| 20260504000528 | 67 | 0 | 0.0 | 2.0 | 0.00 | 0.00 | 0.00 | 48 | 1008.5 |
| 20260504000046 | 67 | 0 | 0.0 | 6.0 | 0.00 | 0.00 | 0.00 | 48 | 1008.4 |
| 20260503235525 | 67 | 0 | 0.0 | 6.0 | 0.00 | 0.00 | 0.00 | 47 | 1008.4 |
| 20260503235025 | 67 | 0 | 0.0 | 6.0 | 0.00 | 0.00 | 0.00 | 46 | 1008.3 |
| 20260503234543 | 68 | 0 | 0.0 | 7.0 | 0.00 | 0.00 | 0.00 | 46 | 1008.4 |
| 20260503234027 | 68 | 0 | 0.0 | 10.0 | 0.00 | 0.00 | 0.00 | 45 | 1008.3 |
| 20260503233525 | 68 | 0 | 0.0 | 10.0 | 0.00 | 0.00 | 0.00 | 45 | 1008.4 |
| 20260503233039 | 68 | 287 | 1.0 | 8.0 | 0.00 | 0.00 | 0.00 | 44 | 1008.3 |
| 20260503232525 | 68 | 0 | 0.0 | 7.0 | 0.00 | 0.00 | 0.00 | 44 | 1008.4 |
| 20260503232026 | 68 | 0 | 0.0 | 10.0 | 0.00 | 0.00 | 0.00 | 44 | 1008.3 |
| 20260503231541 | 68 | 0 | 2.0 | 10.0 | 0.00 | 0.00 | 0.00 | 43 | 1008.4 |
| 20260503231028 | 68 | 287 | 2.0 | 9.0 | 0.00 | 0.00 | 0.00 | 43 | 1008.5 |
| 20260503230527 | 68 | 0 | 1.0 | 9.0 | 0.00 | 0.00 | 0.00 | 42 | 1008.5 |
| 20260503230049 | 68 | 0 | 1.0 | 9.0 | 0.00 | 0.00 | 0.00 | 42 | 1008.6 |
| 20260503225526 | 69 | 287 | 1.0 | 8.0 | 0.00 | 0.00 | 0.00 | 42 | 1008.6 |
| 20260503225026 | 69 | 287 | 1.0 | 9.0 | 0.00 | 0.00 | 0.00 | 42 | 1008.6 |
| 20260503224550 | 69 | 287 | 1.0 | 9.0 | 0.00 | 0.00 | 0.00 | 41 | 1008.6 |
| 20260503224025 | 68 | 0 | 0.0 | 9.0 | 0.00 | 0.00 | 0.00 | 42 | 1008.7 |
| 20260503223526 | 68 | 287 | 0.0 | 10.0 | 0.00 | 0.00 | 0.00 | 42 | 1008.8 |
| 20260503223042 | 68 | 287 | 2.0 | 10.0 | 0.00 | 0.00 | 0.00 | 41 | 1008.8 |
| 20260503222525 | 68 | 0 | 3.0 | 12.0 | 0.00 | 0.00 | 0.00 | 41 | 1008.8 |
| 20260503222025 | 68 | 287 | 3.0 | 12.0 | 0.00 | 0.00 | 0.00 | 41 | 1008.9 |
| 20260503221551 | 68 | 287 | 3.0 | 10.0 | 0.00 | 0.00 | 0.00 | 41 | 1008.8 |
| 20260503221026 | 67 | 287 | 3.0 | 10.0 | 0.00 | 0.00 | 0.00 | 43 | 1008.9 |
| 20260503220529 | 66 | 0 | 3.0 | 13.0 | 0.00 | 0.00 | 0.00 | 43 | 1008.8 |
| 20260503220037 | 66 | 287 | 4.0 | 13.0 | 0.00 | 0.00 | 0.00 | 42 | 1008.9 |
| 20260503215525 | 66 | 287 | 3.0 | 13.0 | 0.00 | 0.00 | 0.00 | 42 | 1008.8 |
| 20260503215026 | 67 | 287 | 4.0 | 13.0 | 0.00 | 0.00 | 0.00 | 42 | 1009.0 |
| 20260503214545 | 67 | 287 | 4.0 | 12.0 | 0.00 | 0.00 | 0.00 | 42 | 1009.0 |
| 20260503214028 | 66 | 287 | 6.0 | 12.0 | 0.00 | 0.00 | 0.00 | 43 | 1009.0 |